[[{"header":{"parameterUnit":"m.s-1","parameterCategory":1,"la1":30.2991,"la2":30.254,"lo1":-89.0895,"lo2":-89.0444,"dy":0.0017,"dx":0.0017,"nx":28,"ny":28,"refTime":"2025-03-03T09:00:00:Z","depth":0,"parameterNumber":2,"parameterNumberName":"U-component_of_WINDS"},"data":[0,0,0,0,0,0,0,0,0,0,0,0,0,0,0,0,0,0,0,0,0,0,0,0,0,0,0,0,0,0,0,0,0,0,0,0,0,0,0,0,0,0,0,0,0,0,0,0,0,0,0,0,0,0,0,0,0,0,-4.8364,-4.8366,0,-4.8532,-4.8534,-4.8536,-4.8547,-4.8545,-4.8543,-4.8541,-4.8715,-4.8722,-4.8728,0,0,0,0,0,0,0,0,0,0,0,0,0,-4.8054,-4.8059,-4.8364,-4.8366,-4.8368,-4.8532,-4.8534,-4.8537,-4.8547,-4.8545,-4.8543,-4.854,-4.8713,-4.8721,-4.8728,0,0,0,0,0,0,0,0,0,0,0,0,0,-4.8202,-4.8061,-4.8363,-4.8393,-4.8397,-4.8531,-4.8534,-4.8537,-4.8548,-4.8545,-4.8542,-4.8539,-4.8711,-4.872,-4.873,-4.8846,0,0,-4.8759,-4.8763,0,0,0,0,0,0,0,0,-4.8193,-4.8213,-4.8387,-4.8391,-4.8396,-4.8516,-4.8489,-4.8641,-4.8548,-4.8491,-4.8541,-4.8538,-4.8651,-4.8666,-4.8704,-4.8854,-4.8862,-4.876,-4.8766,-4.877,-4.8772,0,0,0,0,0,0,0,-4.8183,-4.8206,-4.843,-4.8389,-4.8395,-4.8399,-4.8416,-4.8518,-4.8585,-4.8495,-4.8497,-4.8516,-4.8653,-4.8694,-4.8708,-4.8864,-4.8759,-4.8768,-4.8774,-4.8778,-4.9119,-4.9122,0,0,0,0,0,0,-4.8167,-4.8197,-4.8425,-4.8435,-4.8286,-4.8406,-4.8427,-4.848,-4.8584,-4.8597,-4.8519,-4.8516,-4.8679,-4.8696,-4.8714,-4.8857,-4.877,-4.8779,-4.8784,-4.9116,-4.912,-4.9123,0,0,0,0,0,0,-4.816,-4.8187,-4.8418,-4.8317,-4.8347,-4.8415,-4.8475,-4.8485,-4.8526,-4.8601,-4.8614,-4.8548,-4.8678,-4.87,-4.8813,-4.8863,-4.8783,-4.8792,-4.9112,-4.9117,-4.9122,-4.9143,0,0,0,0,0,0,-4.8151,-4.8185,-4.8229,-4.8318,-4.8352,-4.8514,-4.8478,-4.849,-4.8542,-4.8541,-4.8632,-4.8644,-4.8677,-4.8799,-4.8823,-4.8875,-4.8799,-4.9108,-4.9114,-4.912,-4.9138,-4.9148,-4.9157,0,0,0,0,0,-4.814,-4.8229,-4.8231,-4.8258,-4.8409,-4.8517,-4.8536,-4.8572,-4.8546,-4.8592,-4.864,-4.8641,-4.8854,-4.881,-4.8837,-4.8893,-4.9105,-4.9112,-4.912,-4.9134,-4.9146,-4.9157,0,0,0,0,0,0,-4.8144,-4.8241,-4.8245,-4.8364,-4.8432,-4.8518,-4.8577,-4.8584,-4.8661,-4.8656,-4.8697,-4.8718,-4.8829,-4.8873,-4.8822,-4.9011,-4.8977,-4.899,-4.8978,-4.8991,-4.9,-4.8986,-4.8807,0,0,0,0,0,-4.8159,-4.8238,-4.8319,-4.8417,-4.8451,-4.8508,-4.8556,-4.8578,-4.865,-4.8679,-4.8736,-4.8806,-4.8889,-4.8942,-4.9023,-4.9145,-4.9165,-4.9197,-4.9206,-4.9214,-4.9224,-4.9292,-4.9307,-4.9148,-4.9148,-4.9148,0,0,-4.8191,-4.8253,-4.8301,-4.8419,-4.8474,-4.8556,-4.8532,-4.8619,-4.868,-4.8692,-4.8802,-4.8846,-4.8928,-4.9046,-4.9101,-4.9085,-4.9273,-4.9223,-4.9228,-4.9235,-4.9301,-4.9316,-4.9329,-4.9153,-4.9152,-4.9151,0,0,-4.829,-4.8345,-4.8432,-4.8488,-4.8572,-4.8609,-4.863,-4.8716,-4.8746,-4.8856,-4.8867,-4.8941,-4.9082,-4.914,-4.9188,-4.9309,-4.9313,-4.9335,-4.9382,-4.9448,-4.946,-4.9472,-4.9514,-4.9529,-4.9345,-4.9345,-4.9345,0,-4.8318,-4.8441,-4.8477,-4.8564,-4.8615,-4.863,-4.8719,-4.8772,-4.8878,-4.8914,-4.8895,-4.9073,-4.9129,-4.9261,-4.929,-4.9329,-4.9354,-4.9323,-4.9456,-4.9467,-4.9478,-4.952,-4.9536,-4.9347,-4.9347,-4.9347,-4.9346,0,-4.8472,-4.8556,-4.8617,-4.8718,-4.8777,-4.8865,-4.8915,-4.897,-4.8987,-4.9027,-4.914,-4.9208,-4.9302,-4.9335,-4.9352,-4.9469,-4.9457,-4.9447,-4.9413,-4.9495,-4.9534,-4.955,-4.935,-4.9349,-4.9349,-4.9348,0,0,-4.8577,-4.8697,-4.8718,-4.8764,-4.8858,-4.8924,-4.9013,-4.9105,-4.9151,-4.9225,-4.93,-4.942,-4.9411,-4.9465,-4.949,-4.9547,-4.9639,-4.953,-4.9533,-4.9547,-4.9771,-4.9777,-4.9795,-4.9643,-4.9646,-4.9648,-4.9764,0,-4.8685,-4.8842,-4.8877,-4.9013,-4.9091,-4.9107,-4.9185,-4.9251,-4.9291,-4.9364,-4.9409,-4.9493,-4.9475,-4.9508,-4.9566,-4.9615,-4.9684,-4.9608,-4.9713,-4.9716,-4.969,-4.9816,-4.9823,-4.9928,-4.978,-4.9782,-4.9784,0,-4.8832,-4.8907,-4.905,-4.9133,-4.9168,-4.9236,-4.9323,-4.9393,-4.9469,-4.9494,-4.9555,-4.9574,-4.9667,-4.963,-4.9759,-4.9706,-4.9752,-4.9783,-4.9788,-4.9798,-4.9754,-4.9828,-4.9963,-4.9978,-4.9809,-4.9807,-4.9805,0,-4.8893,-4.9031,-4.9134,-4.9173,-4.9273,-4.932,-4.9365,-4.9437,-4.949,-4.9567,-4.9601,-4.9688,-4.9735,-4.9802,-4.9844,-4.9813,-4.9971,-4.9936,-4.9994,-4.9993,-5.0025,-5.0022,-5.0168,-5.0057,-5.0056,-5.0056,-5.0056,0,-4.901,-4.9097,-4.9162,-4.9226,-4.9323,-4.9364,-4.946,-4.9504,-4.9569,-4.9642,-4.9661,-4.9729,-4.9781,-4.9856,-4.989,-4.9992,-5.0014,-5.0036,-5.0044,-5.0034,-5.0031,-5.0063,-5.0057,-5.006,-5.0059,-5.0059,-5.0058,0,-4.9094,-4.9142,-4.9255,-4.934,-4.9364,-4.9432,-4.9505,-4.9568,-4.9608,-4.97,-4.9724,-4.9788,-4.9878,-4.9926,-5.0039,-5.0062,-5.0176,-5.018,-5.015,-5.0153,-5.0207,-5.0201,-5.0378,-5.0403,-5.0276,-5.0277,-5.0278,0,-4.9165,-4.9232,-4.9324,-4.9373,-4.9418,-4.9498,-4.9552,-4.9595,-4.965,-4.9741,-4.9793,-4.9884,-4.9958,-5.0101,-5.0158,-5.0245,-5.0251,-5.0307,-5.0264,-5.0252,-5.0251,-5.0246,-5.0252,-5.0314,-5.0315,-5.0316,-5.0317,0,-4.9285,-4.9305,-4.9382,-4.9466,-4.953,-4.9599,-4.9667,-4.9707,-4.9761,-4.9823,-4.9914,-4.9972,-5.0087,-5.0177,-5.0268,-5.0314,-5.0325,-5.033,-5.0348,-5.0338,-5.0317,-5.0328,-5.0169,-5.0326,-5.0325,-5.0324,-5.0324,-5.0323,-4.9365,-4.9424,-4.9498,-4.9583,-4.9638,-4.9702,-4.9764,-4.9813,-4.9889,-4.9985,-5.0007,-5.0103,-5.0178,-5.0301,-5.035,-5.0427,-5.0416,-5.0442,-5.0448,-5.0454,-5.0455,-5.0305,-5.0444,-5.0444,-5.0443,-5.0443,-5.0443,0,-4.9485,-4.9533,-4.961,-4.9705,-4.9771,-4.9775,-4.9851,-4.9906,-4.9991,-5.0059,-5.0132,-5.0237,-5.0325,-5.0389,-5.0478,-5.0527,-5.0535,-5.0549,-5.0546,-5.0556,-5.046,-5.0435,-5.0542,-5.0542,-5.0542,-5.0542,-5.0542,-5.0542,-4.9556,-4.9657,-4.9686,-4.9815,-4.9863,-4.9957,-5.0,-5.0059,-5.0113,-5.0229,-5.0302,-5.0343,-5.041,-5.0504,-5.0585,-5.0602,-5.0633,-5.0647,-5.0664,-5.0573,-5.0563,-5.0553,-5.0529,-5.0654,-5.0654,-5.0754,-5.0755,-5.0755]},{"header":{"parameterUnit":"m.s-1","parameterCategory":1,"la1":30.2991,"la2":30.254,"lo1":-89.0895,"lo2":-89.0444,"dy":0.0017,"dx":0.0017,"nx":28,"ny":28,"refTime":"2025-03-03T09:00:00:Z","depth":0,"parameterNumber":3,"parameterNumberName":"V-component_of_WINDS"},"data":[0,0,0,0,0,0,0,0,0,0,0,0,0,0,0,0,0,0,0,0,0,0,0,0,0,0,0,0,0,0,0,0,0,0,0,0,0,0,0,0,0,0,0,0,0,0,0,0,0,0,0,0,0,0,0,0,0,0,4.8899,4.8899,0,4.8888,4.8887,4.8887,4.8815,4.8814,4.8812,4.881,4.8799,4.88,4.8801,0,0,0,0,0,0,0,0,0,0,0,0,0,4.886,4.8861,4.8899,4.8899,4.8899,4.8888,4.8887,4.8887,4.8816,4.8813,4.8811,4.8809,4.8798,4.88,4.8801,0,0,0,0,0,0,0,0,0,0,0,0,0,4.8866,4.8862,4.8899,4.8862,4.8858,4.8888,4.8887,4.8887,4.8816,4.8813,4.8811,4.8808,4.8798,4.88,4.8801,4.8866,0,0,4.8808,4.8808,0,0,0,0,0,0,0,0,4.8866,4.8867,4.8867,4.8864,4.886,4.885,4.8869,4.888,4.8817,4.8832,4.881,4.8807,4.8818,4.8818,4.8822,4.8866,4.8865,4.8808,4.8809,4.881,4.881,0,0,0,0,0,0,0,4.8865,4.8867,4.8894,4.8867,4.8863,4.8846,4.8844,4.8871,4.884,4.8831,4.8825,4.8825,4.8815,4.882,4.8821,4.8865,4.8808,4.8809,4.8811,4.8811,4.8963,4.8965,0,0,0,0,0,0,4.887,4.8868,4.8895,4.8894,4.8857,4.8849,4.8846,4.8856,4.8839,4.8834,4.8827,4.8822,4.8818,4.8819,4.882,4.8895,4.881,4.8812,4.8813,4.896,4.8963,4.8966,0,0,0,0,0,0,4.887,4.8873,4.8895,4.8879,4.8881,4.8852,4.8864,4.8857,4.8861,4.8837,4.8831,4.8837,4.8816,4.8817,4.8855,4.8894,4.8812,4.8814,4.8957,4.8961,4.8965,4.9046,0,0,0,0,0,0,4.8869,4.8873,4.8897,4.8881,4.8882,4.8931,4.8866,4.8859,4.8865,4.8858,4.8845,4.884,4.8814,4.8853,4.8857,4.8895,4.8816,4.8953,4.8958,4.8963,4.904,4.9052,4.9063,0,0,0,0,0,4.8868,4.892,4.8899,4.8902,4.8911,4.8933,4.8934,4.8903,4.8868,4.8892,4.8877,4.884,4.8889,4.8857,4.8862,4.8901,4.895,4.8957,4.8963,4.9034,4.905,4.9063,0,0,0,0,0,0,4.8941,4.8917,4.8893,4.8942,4.894,4.8921,4.895,4.892,4.8928,4.892,4.8881,4.8879,4.8923,4.8916,4.8881,4.8963,4.8914,4.8921,4.8966,4.8981,4.8992,4.8993,4.8817,0,0,0,0,0,4.8963,4.8983,4.8961,4.9006,4.9006,4.8979,4.8987,4.8963,4.896,4.8959,4.8946,4.8944,4.8959,4.8969,4.8982,4.9039,4.9035,4.9068,4.9079,4.9089,4.9096,4.9127,4.9141,4.8987,4.8987,4.8987,0,0,4.9009,4.8998,4.9013,4.9021,4.9016,4.9038,4.8978,4.9003,4.9019,4.8962,4.8998,4.8989,4.8984,4.9032,4.9053,4.9027,4.9138,4.9097,4.9105,4.9107,4.9135,4.9149,4.9162,4.8992,4.8991,4.899,0,0,4.9103,4.9097,4.9134,4.9131,4.9126,4.9108,4.9117,4.9103,4.9095,4.913,4.9088,4.9106,4.9133,4.9132,4.9134,4.9231,4.9198,4.9236,4.9297,4.9328,4.934,4.935,4.9385,4.9398,4.9243,4.9243,4.9243,0,4.916,4.919,4.9157,4.9185,4.919,4.9141,4.9179,4.9178,4.9177,4.9182,4.9154,4.9187,4.918,4.9228,4.9252,4.9256,4.9266,4.9237,4.9341,4.9351,4.936,4.9393,4.9406,4.9248,4.9247,4.9247,4.9246,0,4.9261,4.9284,4.9314,4.9316,4.9324,4.9357,4.933,4.9343,4.9319,4.9304,4.9341,4.9332,4.9342,4.9351,4.9328,4.9396,4.9381,4.9347,4.9297,4.938,4.941,4.9422,4.9255,4.9253,4.9251,4.925,0,0,4.9399,4.9383,4.9395,4.9396,4.9388,4.9404,4.9436,4.9446,4.9458,4.946,4.9486,4.951,4.948,4.9483,4.946,4.9486,4.9564,4.9449,4.9449,4.9471,4.9639,4.9665,4.968,4.9543,4.9545,4.9547,4.964,0,4.949,4.9542,4.9514,4.9571,4.9592,4.9546,4.9574,4.9572,4.9559,4.9575,4.9561,4.9579,4.9537,4.9539,4.9564,4.9549,4.9597,4.9542,4.9566,4.9568,4.9568,4.9695,4.9721,4.981,4.9651,4.9653,4.9655,0,4.9602,4.9609,4.9668,4.9658,4.9665,4.969,4.9698,4.9714,4.9712,4.9701,4.9706,4.9677,4.9707,4.9658,4.9701,4.9664,4.9672,4.9667,4.967,4.967,4.9616,4.9699,4.9837,4.9851,4.9673,4.9671,4.967,0,4.9697,4.9722,4.9761,4.9763,4.9751,4.977,4.9766,4.9761,4.977,4.9777,4.9782,4.9793,4.9799,4.9808,4.9783,4.9749,4.9829,4.9778,4.9821,4.9822,4.9839,4.9839,4.9981,4.9846,4.9845,4.9845,4.9845,0,4.9801,4.9839,4.9804,4.9828,4.9869,4.9837,4.9879,4.987,4.9867,4.9889,4.985,4.9871,4.9837,4.9855,4.9835,4.9874,4.9877,4.9869,4.9863,4.9872,4.9873,4.9877,4.987,4.9849,4.9848,4.9847,4.9847,0,4.9914,4.9892,4.9932,4.9918,4.9916,4.9947,4.9935,4.9957,4.9943,4.9971,4.9975,4.9953,4.9972,4.9948,4.9965,4.9952,5.0004,4.999,5.0005,5.0001,5.0046,5.0042,5.0195,5.0214,5.0067,5.0068,5.007,0,4.9982,5.001,5.0,5.0012,5.0011,5.003,5.0039,5.0009,5.002,5.0021,5.0043,5.0059,5.007,5.0104,5.0089,5.0102,5.0087,5.014,5.0089,5.0098,5.0088,5.0087,5.009,5.015,5.0152,5.0153,5.0155,0,5.0104,5.0092,5.0106,5.0118,5.013,5.0137,5.0141,5.0154,5.0122,5.0137,5.0156,5.0166,5.0184,5.0201,5.021,5.0206,5.0176,5.0171,5.0182,5.0191,5.0199,5.0196,5.0034,5.0167,5.0166,5.0165,5.0164,5.0164,5.0196,5.022,5.0217,5.0235,5.0235,5.0241,5.0261,5.025,5.0266,5.0278,5.026,5.0285,5.0283,5.0292,5.0292,5.0312,5.0289,5.0304,5.0308,5.0313,5.032,5.0197,5.0313,5.0313,5.0312,5.0312,5.0312,0,5.0317,5.0313,5.033,5.0338,5.0353,5.0323,5.0327,5.0341,5.0364,5.0365,5.0377,5.0401,5.0417,5.0404,5.0418,5.0436,5.0423,5.0441,5.0439,5.0439,5.0339,5.0328,5.0452,5.0452,5.0452,5.0452,5.0452,5.0452,5.0381,5.042,5.0409,5.0448,5.0443,5.0468,5.0473,5.0478,5.0479,5.0507,5.0521,5.0512,5.0508,5.0521,5.0536,5.0531,5.0538,5.0562,5.0553,5.046,5.0446,5.0433,5.0422,5.0564,5.0564,5.0651,5.0652,5.0653]}]]